TVF74 LIMC-LFPG

Flight info

Callsign TVF74
Flight time 1h 4m
Altitude 34000
Route DOGUB DCT AOSTA DCT ORSUD DCT MOLUS DCT UNKIR DCT GIVRI DCT TINIL
Aircraft B38M/M-SDE1FGHILORVWXY/HB1

Departure

Time 2026-04-30 09:38
Airport Milan Malpensa International Airport (LIMC)

Arrival

Time 2026-04-30 10:42
Airport Charles de Gaulle International Airport (LFPG)
Time Latitude Longitude Altitude Speed Heading
2026-04-30 09:13 45.62459 8.71770 731 ft 0 kts 258°
2026-04-30 09:22 45.62459 8.71775 731 ft 3 kts 264°
2026-04-30 09:23 45.62461 8.71802 731 ft 3 kts 250°
2026-04-30 09:23 45.62471 8.71824 729 ft 3 kts 219°
2026-04-30 09:23 45.62477 8.71831 730 ft 0 kts 211°
2026-04-30 09:24 45.62477 8.71830 730 ft 0 kts 211°
2026-04-30 09:24 45.62475 8.71829 730 ft 0 kts 211°
2026-04-30 09:27 45.62474 8.71828 730 ft 1 kts 211°
2026-04-30 09:27 45.62471 8.71825 729 ft 0 kts 212°
2026-04-30 09:27 45.62469 8.71823 729 ft 1 kts 211°
2026-04-30 09:28 45.62461 8.71823 731 ft 2 kts 171°
2026-04-30 09:28 45.62440 8.71840 730 ft 8 kts 144°
2026-04-30 09:28 45.62347 8.71916 729 ft 22 kts 167°
2026-04-30 09:28 45.62166 8.71967 725 ft 30 kts 168°
2026-04-30 09:29 45.61942 8.72029 722 ft 36 kts 169°
2026-04-30 09:29 45.61679 8.72104 714 ft 38 kts 170°
2026-04-30 09:29 45.61462 8.72162 711 ft 30 kts 169°
2026-04-30 09:29 45.61246 8.72221 704 ft 33 kts 169°
2026-04-30 09:30 45.61024 8.72282 698 ft 31 kts 169°
2026-04-30 09:30 45.60799 8.72345 698 ft 35 kts 169°
2026-04-30 09:30 45.60663 8.72410 701 ft 15 kts 131°
2026-04-30 09:30 45.60635 8.72570 701 ft 19 kts 96°
2026-04-30 09:31 45.60621 8.72779 701 ft 23 kts 95°
2026-04-30 09:31 45.60603 8.73017 701 ft 25 kts 96°
2026-04-30 09:31 45.60622 8.73249 700 ft 24 kts 49°
2026-04-30 09:31 45.60721 8.73324 697 ft 15 kts 22°
2026-04-30 09:32 45.60833 8.73389 699 ft 20 kts 22°
2026-04-30 09:32 45.60947 8.73395 698 ft 13 kts 350°
2026-04-30 09:32 45.61044 8.73369 697 ft 16 kts 349°
2026-04-30 09:32 45.61169 8.73335 698 ft 20 kts 349°
2026-04-30 09:33 45.61301 8.73297 702 ft 17 kts 348°
2026-04-30 09:33 45.61425 8.73262 700 ft 18 kts 349°
2026-04-30 09:33 45.61501 8.73241 702 ft 0 kts 349°
2026-04-30 09:34 45.61508 8.73239 706 ft 3 kts 349°
2026-04-30 09:34 45.61537 8.73232 700 ft 6 kts 350°
2026-04-30 09:34 45.61587 8.73223 705 ft 8 kts 11°
2026-04-30 09:34 45.61618 8.73274 705 ft 7 kts 77°
2026-04-30 09:35 45.61631 8.73371 707 ft 13 kts 80°
2026-04-30 09:35 45.61606 8.73501 700 ft 16 kts 117°
2026-04-30 09:35 45.61588 8.73595 699 ft 0 kts 92°
2026-04-30 09:36 45.61588 8.73624 704 ft 6 kts 86°
2026-04-30 09:37 45.61611 8.73709 701 ft 12 kts 44°
2026-04-30 09:37 45.61665 8.73725 698 ft 0 kts 349°
2026-04-30 09:37 45.61666 8.73725 704 ft 2 kts 349°
2026-04-30 09:38 45.61781 8.73695 707 ft 50 kts 349°
2026-04-30 09:38 45.62431 8.73515 725 ft 137 kts 349°
2026-04-30 09:38 45.63587 8.73191 992 ft 189 kts 351°
2026-04-30 09:38 45.64899 8.72813 2009 ft 197 kts 352°
2026-04-30 09:39 45.66226 8.72452 2766 ft 194 kts 352°
2026-04-30 09:39 45.67617 8.72080 3321 ft 211 kts 353°
2026-04-30 09:39 45.69113 8.71697 3905 ft 224 kts 353°
2026-04-30 09:39 45.70659 8.71199 4720 ft 232 kts 342°
2026-04-30 09:40 45.72075 8.70066 5812 ft 237 kts 321°
2026-04-30 09:40 45.73170 8.68353 7007 ft 234 kts 303°
2026-04-30 09:40 45.73896 8.66166 7754 ft 247 kts 285°
2026-04-30 09:40 45.74106 8.63760 8125 ft 248 kts 266°
2026-04-30 09:41 45.73657 8.61392 8380 ft 249 kts 239°
2026-04-30 09:41 45.72486 8.59568 8443 ft 254 kts 219°
2026-04-30 09:41 45.71167 8.57842 8073 ft 260 kts 227°
2026-04-30 09:41 45.70031 8.55875 8311 ft 257 kts 231°
2026-04-30 09:42 45.68908 8.53752 8789 ft 278 kts 234°
2026-04-30 09:42 45.67756 8.51412 9265 ft 297 kts 236°
2026-04-30 09:42 45.66564 8.48876 9753 ft 317 kts 237°
2026-04-30 09:42 45.65333 8.46189 10239 ft 334 kts 238°
2026-04-30 09:43 45.64056 8.43368 10702 ft 342 kts 238°
2026-04-30 09:43 45.62726 8.40502 11170 ft 349 kts 234°
2026-04-30 09:43 45.61177 8.37800 11677 ft 354 kts 232°
2026-04-30 09:43 45.59669 8.35005 12157 ft 356 kts 240°
2026-04-30 09:44 45.58699 8.31749 12680 ft 357 kts 258°
2026-04-30 09:44 45.58521 8.28231 13187 ft 356 kts 278°
2026-04-30 09:44 45.59169 8.24829 13731 ft 357 kts 292°
2026-04-30 09:44 45.59986 8.21452 14239 ft 361 kts 290°
2026-04-30 09:45 45.60775 8.18076 14693 ft 365 kts 290°
2026-04-30 09:45 45.61573 8.14625 15170 ft 368 kts 290°
2026-04-30 09:45 45.62375 8.11141 15645 ft 371 kts 290°
2026-04-30 09:45 45.63183 8.07618 16138 ft 374 kts 290°
2026-04-30 09:46 45.63996 8.04068 16635 ft 377 kts 290°
2026-04-30 09:46 45.64814 8.00482 17146 ft 381 kts 290°
2026-04-30 09:46 45.65640 7.96862 17660 ft 384 kts 290°
2026-04-30 09:46 45.66472 7.93214 18184 ft 388 kts 290°
2026-04-30 09:47 45.67301 7.89567 18702 ft 391 kts 290°
2026-04-30 09:47 45.68143 7.85855 19164 ft 394 kts 290°
2026-04-30 09:47 45.68992 7.82108 19640 ft 397 kts 290°
2026-04-30 09:47 45.69845 7.78336 20128 ft 399 kts 290°
2026-04-30 09:48 45.70700 7.74549 20596 ft 401 kts 290°
2026-04-30 09:48 45.71560 7.70735 21092 ft 404 kts 290°
2026-04-30 09:48 45.72426 7.66892 21601 ft 406 kts 290°
2026-04-30 09:48 45.73293 7.63033 22124 ft 409 kts 290°
2026-04-30 09:49 45.73871 7.60454 22470 ft 411 kts 290°
2026-04-30 09:49 45.75038 7.55248 23172 ft 415 kts 290°
2026-04-30 09:49 45.75922 7.51290 23727 ft 419 kts 289°
2026-04-30 09:49 45.76811 7.47302 24198 ft 421 kts 289°
2026-04-30 09:50 45.77404 7.44642 24505 ft 423 kts 289°
2026-04-30 09:50 45.78302 7.40608 24983 ft 426 kts 289°
2026-04-30 09:50 45.79488 7.36738 25430 ft 424 kts 304°
2026-04-30 09:50 45.81369 7.33491 25922 ft 424 kts 319°
2026-04-30 09:51 45.83666 7.30817 26415 ft 425 kts 323°
2026-04-30 09:51 45.86003 7.28278 26890 ft 427 kts 324°
2026-04-30 09:51 45.88405 7.25752 27393 ft 429 kts 325°
2026-04-30 09:51 45.90829 7.23240 27893 ft 430 kts 325°
2026-04-30 09:52 45.93272 7.20731 28406 ft 431 kts 325°
2026-04-30 09:52 45.95720 7.18226 28937 ft 432 kts 325°
2026-04-30 09:52 45.98171 7.15720 29419 ft 433 kts 325°
2026-04-30 09:52 46.00630 7.13203 29971 ft 433 kts 325°
2026-04-30 09:53 46.03088 7.10684 30483 ft 432 kts 325°
2026-04-30 09:53 46.05537 7.08173 30966 ft 431 kts 325°
2026-04-30 09:53 46.07977 7.05667 31450 ft 430 kts 325°
2026-04-30 09:53 46.10381 7.03196 31939 ft 429 kts 325°
2026-04-30 09:54 46.12826 7.00680 32182 ft 435 kts 325°
2026-04-30 09:54 46.15307 6.98124 32146 ft 440 kts 325°
2026-04-30 09:54 46.20310 6.92960 32159 ft 442 kts 325°
2026-04-30 09:55 46.25321 6.87779 32156 ft 443 kts 325°
2026-04-30 09:55 46.30393 6.82519 32176 ft 457 kts 325°
2026-04-30 09:56 46.35588 6.77120 32183 ft 463 kts 325°
2026-04-30 09:56 46.40463 6.71014 32196 ft 465 kts 318°
2026-04-30 09:57 46.45222 6.64621 32203 ft 466 kts 319°
2026-04-30 09:57 46.50016 6.58266 32209 ft 467 kts 319°
2026-04-30 09:58 46.54796 6.51928 32213 ft 468 kts 319°
2026-04-30 09:58 46.59617 6.45521 32209 ft 469 kts 319°
2026-04-30 09:59 46.69248 6.32673 32189 ft 471 kts 319°
2026-04-30 10:00 46.76508 6.22944 32184 ft 473 kts 319°
2026-04-30 10:01 46.83800 6.13136 32165 ft 475 kts 319°
2026-04-30 10:02 46.91059 6.03333 32165 ft 475 kts 319°
2026-04-30 10:02 46.95921 5.96746 32149 ft 476 kts 319°
2026-04-30 10:03 47.00789 5.90134 32153 ft 476 kts 319°
2026-04-30 10:03 47.05619 5.83557 32154 ft 477 kts 319°
2026-04-30 10:04 47.10481 5.76919 32154 ft 478 kts 319°
2026-04-30 10:04 47.15028 5.70695 32159 ft 478 kts 319°
2026-04-30 10:05 47.19894 5.64016 32158 ft 478 kts 319°
2026-04-30 10:05 47.24728 5.57366 32161 ft 478 kts 319°
2026-04-30 10:06 47.29589 5.50659 32157 ft 479 kts 319°
2026-04-30 10:06 47.34456 5.43928 32160 ft 479 kts 319°
2026-04-30 10:07 47.39315 5.37191 32146 ft 480 kts 319°
2026-04-30 10:07 47.41750 5.33806 31842 ft 480 kts 319°
2026-04-30 10:07 47.44184 5.30419 31448 ft 480 kts 319°
2026-04-30 10:07 47.46621 5.27024 31056 ft 482 kts 318°
2026-04-30 10:08 47.49032 5.23661 30676 ft 484 kts 318°
2026-04-30 10:08 47.51484 5.20234 30292 ft 485 kts 318°
2026-04-30 10:08 47.53948 5.16789 29851 ft 486 kts 318°
2026-04-30 10:08 47.56398 5.13356 29417 ft 484 kts 318°
2026-04-30 10:09 47.58867 5.09975 28985 ft 481 kts 322°
2026-04-30 10:09 47.61428 5.06796 28562 ft 482 kts 322°
2026-04-30 10:09 47.63998 5.03571 28189 ft 485 kts 321°
2026-04-30 10:10 47.69171 4.97016 28175 ft 491 kts 321°
2026-04-30 10:10 47.74371 4.90414 28172 ft 491 kts 321°
2026-04-30 10:11 47.79546 4.83861 28172 ft 491 kts 321°
2026-04-30 10:11 47.84584 4.77461 28115 ft 491 kts 321°
2026-04-30 10:11 47.87179 4.74158 27693 ft 488 kts 321°
2026-04-30 10:12 47.89753 4.70877 27291 ft 485 kts 321°
2026-04-30 10:12 47.92279 4.67653 26895 ft 482 kts 321°
2026-04-30 10:12 47.94822 4.64403 26512 ft 479 kts 321°
2026-04-30 10:12 47.97344 4.61175 26118 ft 476 kts 321°
2026-04-30 10:13 47.99855 4.57957 25743 ft 474 kts 321°
2026-04-30 10:13 48.02352 4.54754 25368 ft 471 kts 321°
2026-04-30 10:13 48.04829 4.51571 24996 ft 469 kts 321°
2026-04-30 10:13 48.07296 4.48397 24628 ft 467 kts 321°
2026-04-30 10:14 48.09749 4.45237 24277 ft 465 kts 321°
2026-04-30 10:14 48.12193 4.42084 23919 ft 462 kts 321°
2026-04-30 10:14 48.17012 4.35856 23135 ft 448 kts 321°
2026-04-30 10:15 48.19345 4.32835 22753 ft 438 kts 321°
2026-04-30 10:15 48.21602 4.29908 22361 ft 429 kts 321°
2026-04-30 10:15 48.23839 4.27007 21986 ft 421 kts 321°
2026-04-30 10:15 48.26035 4.24113 21584 ft 417 kts 317°
2026-04-30 10:16 48.27912 4.20834 21211 ft 411 kts 311°
2026-04-30 10:16 48.29714 4.17543 20827 ft 404 kts 311°
2026-04-30 10:16 48.31486 4.14316 20452 ft 398 kts 311°
2026-04-30 10:17 48.34975 4.07951 19692 ft 390 kts 311°
2026-04-30 10:17 48.38397 4.01695 18953 ft 384 kts 311°
2026-04-30 10:17 48.40067 3.98638 18589 ft 382 kts 311°
2026-04-30 10:18 48.41747 3.95558 18190 ft 380 kts 311°
2026-04-30 10:18 48.43424 3.92480 17784 ft 379 kts 311°
2026-04-30 10:18 48.45094 3.89412 17378 ft 377 kts 311°
2026-04-30 10:19 48.48376 3.83369 16584 ft 367 kts 311°
2026-04-30 10:19 48.49963 3.80445 16200 ft 363 kts 311°
2026-04-30 10:19 48.51569 3.77481 15805 ft 358 kts 310°
2026-04-30 10:19 48.53120 3.74615 15432 ft 354 kts 310°
2026-04-30 10:20 48.54554 3.71620 15052 ft 350 kts 303°
2026-04-30 10:20 48.57179 3.65473 14309 ft 345 kts 304°
2026-04-30 10:20 48.58489 3.62445 13951 ft 344 kts 304°
2026-04-30 10:21 48.59786 3.59460 13545 ft 343 kts 304°
2026-04-30 10:21 48.61094 3.56445 13138 ft 342 kts 304°
2026-04-30 10:21 48.62382 3.53434 12725 ft 340 kts 304°
2026-04-30 10:21 48.63663 3.50441 12324 ft 338 kts 304°
2026-04-30 10:22 48.64937 3.47462 11944 ft 336 kts 304°
2026-04-30 10:22 48.66207 3.44489 11546 ft 335 kts 304°
2026-04-30 10:22 48.67468 3.41535 11170 ft 334 kts 304°
2026-04-30 10:22 48.68710 3.38619 10783 ft 333 kts 304°
2026-04-30 10:23 48.69958 3.35687 10404 ft 331 kts 304°
2026-04-30 10:23 48.71185 3.32802 10233 ft 315 kts 304°
2026-04-30 10:23 48.72329 3.30111 10234 ft 294 kts 304°
2026-04-30 10:23 48.73424 3.27536 10222 ft 288 kts 304°
2026-04-30 10:24 48.74508 3.24978 10212 ft 288 kts 304°
2026-04-30 10:24 48.75588 3.22427 10185 ft 288 kts 303°
2026-04-30 10:24 48.76667 3.19879 10080 ft 290 kts 303°
2026-04-30 10:24 48.77785 3.17239 9439 ft 301 kts 303°
2026-04-30 10:25 48.78915 3.14565 8825 ft 309 kts 304°
2026-04-30 10:25 48.80091 3.11776 8261 ft 314 kts 304°
2026-04-30 10:25 48.81247 3.09033 8177 ft 300 kts 304°
2026-04-30 10:25 48.82296 3.06387 8173 ft 286 kts 294°
2026-04-30 10:26 48.82678 3.03544 8188 ft 278 kts 267°
2026-04-30 10:26 48.82454 3.00588 8192 ft 279 kts 259°
2026-04-30 10:26 48.82151 2.97676 8176 ft 279 kts 262°
2026-04-30 10:26 48.82224 2.94742 8185 ft 280 kts 279°
2026-04-30 10:27 48.82557 2.91855 8197 ft 281 kts 279°
2026-04-30 10:27 48.82864 2.88913 8007 ft 283 kts 278°
2026-04-30 10:27 48.83155 2.85965 7734 ft 281 kts 278°
2026-04-30 10:27 48.83437 2.83030 7485 ft 280 kts 278°
2026-04-30 10:28 48.83712 2.80109 7251 ft 278 kts 277°
2026-04-30 10:28 48.83981 2.77220 7209 ft 276 kts 277°
2026-04-30 10:28 48.84250 2.74323 7190 ft 277 kts 277°
2026-04-30 10:28 48.84516 2.71416 7177 ft 277 kts 277°
2026-04-30 10:29 48.84780 2.68522 7155 ft 277 kts 277°
2026-04-30 10:29 48.85042 2.65652 6863 ft 279 kts 277°
2026-04-30 10:29 48.85308 2.62728 6574 ft 280 kts 277°
2026-04-30 10:29 48.85575 2.59790 6213 ft 280 kts 277°
2026-04-30 10:30 48.85838 2.56876 5905 ft 274 kts 277°
2026-04-30 10:30 48.86092 2.54059 5604 ft 263 kts 277°
2026-04-30 10:30 48.86335 2.51336 5306 ft 256 kts 276°
2026-04-30 10:30 48.86575 2.48688 5045 ft 248 kts 277°
2026-04-30 10:31 48.86799 2.46173 5045 ft 237 kts 276°
2026-04-30 10:31 48.87018 2.43712 5032 ft 238 kts 276°
2026-04-30 10:31 48.87239 2.41222 4989 ft 237 kts 276°
2026-04-30 10:31 48.87460 2.38737 4998 ft 237 kts 276°
2026-04-30 10:32 48.87684 2.36244 4993 ft 238 kts 276°
2026-04-30 10:32 48.87904 2.33745 5008 ft 239 kts 276°
2026-04-30 10:32 48.88124 2.31246 4986 ft 238 kts 276°
2026-04-30 10:32 48.88343 2.28752 4987 ft 238 kts 276°
2026-04-30 10:33 48.88562 2.26257 5002 ft 239 kts 277°
2026-04-30 10:33 48.88776 2.23784 5012 ft 231 kts 276°
2026-04-30 10:33 48.88980 2.21445 4950 ft 221 kts 276°
2026-04-30 10:33 48.89178 2.19165 5003 ft 217 kts 276°
2026-04-30 10:34 48.89377 2.16877 5013 ft 218 kts 276°
2026-04-30 10:34 48.89786 2.14678 4934 ft 216 kts 304°
2026-04-30 10:34 48.90847 2.13133 4917 ft 211 kts 337°
2026-04-30 10:34 48.92219 2.12520 4801 ft 202 kts
2026-04-30 10:35 48.93547 2.12872 4654 ft 188 kts 35°
2026-04-30 10:35 48.94436 2.14172 4478 ft 176 kts 63°
2026-04-30 10:35 48.95041 2.15781 4295 ft 175 kts 69°
2026-04-30 10:35 48.95598 2.17430 4092 ft 175 kts 67°
2026-04-30 10:36 48.96161 2.19099 3686 ft 177 kts 69°
2026-04-30 10:36 48.96609 2.20851 3234 ft 179 kts 76°
2026-04-30 10:36 48.96990 2.22660 2787 ft 179 kts 78°
2026-04-30 10:36 48.97309 2.24459 2476 ft 170 kts 80°
2026-04-30 10:37 48.97560 2.26100 2511 ft 152 kts 81°
2026-04-30 10:37 48.97757 2.27599 2459 ft 134 kts 82°
2026-04-30 10:37 48.97911 2.28979 2554 ft 133 kts 85°
2026-04-30 10:37 48.98045 2.30361 2567 ft 130 kts 85°
2026-04-30 10:38 48.98169 2.31725 2345 ft 129 kts 86°
2026-04-30 10:38 48.98279 2.33097 2241 ft 133 kts 85°
2026-04-30 10:38 48.98349 2.34038 2252 ft 135 kts 86°
2026-04-30 10:38 48.98464 2.35936 2126 ft 135 kts 86°
2026-04-30 10:39 48.98577 2.37355 1992 ft 136 kts 84°
2026-04-30 10:39 48.98635 2.38326 1909 ft 137 kts 86°
2026-04-30 10:39 48.98683 2.39777 1907 ft 138 kts 90°
2026-04-30 10:39 48.98755 2.41227 1908 ft 136 kts 85°
2026-04-30 10:40 48.98853 2.42647 1731 ft 136 kts 84°
2026-04-30 10:40 48.98950 2.44062 1561 ft 136 kts 86°
2026-04-30 10:40 48.99048 2.45487 1410 ft 134 kts 85°
2026-04-30 10:40 48.99132 2.46900 1199 ft 134 kts 87°
2026-04-30 10:41 48.99166 2.48314 1044 ft 133 kts 87°
2026-04-30 10:41 48.99241 2.49718 1091 ft 134 kts 84°
2026-04-30 10:41 48.99353 2.51130 1007 ft 135 kts 83°
2026-04-30 10:41 48.99435 2.52538 798 ft 132 kts 87°
2026-04-30 10:42 48.99496 2.53931 569 ft 131 kts 86°
2026-04-30 10:42 48.99573 2.55295 389 ft 127 kts 88°
2026-04-30 10:42 48.99636 2.56531 358 ft 99 kts 85°
2026-04-30 10:42 48.99679 2.57330 354 ft 47 kts 85°
2026-04-30 10:43 48.99700 2.57751 363 ft 39 kts 86°
2026-04-30 10:43 48.99757 2.58135 357 ft 35 kts 67°
2026-04-30 10:43 48.99833 2.58401 359 ft 25 kts 65°
2026-04-30 10:43 48.99889 2.58598 360 ft 19 kts 67°
2026-04-30 10:44 48.99955 2.58730 357 ft 14 kts 15°
2026-04-30 10:44 49.00028 2.58680 359 ft 11 kts 282°
2026-04-30 10:44 49.00022 2.58554 357 ft 14 kts 265°
2026-04-30 10:44 49.00017 2.58391 365 ft 16 kts 272°
2026-04-30 10:45 49.00085 2.58331 360 ft 13 kts 14°
2026-04-30 10:45 49.00157 2.58353 356 ft 7 kts 34°
2026-04-30 10:45 49.00167 2.58410 356 ft 3 kts 92°
2026-04-30 10:45 49.00167 2.58417 356 ft 0 kts 90°